Location: Hackbridge
(51.3833°N, 0.1500°W)
Time: 16:34:53
(UTC+00:00)

STARLINK-60 - Pass Details

Date: 13 October 2019
Orbit: 419 x 428 km, 53.0° (Epoch: 12 November)

Event Time Altitude Azimuth Distance (km) Brightness Sun altitude
Rises 17:34:21 0° 254° (WSW) 2,380 9.3 -4.2°
Reaches altitude 10° 17:36:27 10° 254° (WSW) 1,520 7.7 -4.5°
Maximum altitude 17:39:52 87° 346° (NNW) 436 3.1 -5.0°
Drops below altitude 10° 17:43:19 10° 74° (ENE) 1,536 5.2 -5.6°
Enters shadow 17:43:53 - 74° (ENE) 1,767 5.5 -5.7°
